Time,TemperatureF,DewpointF,PressureIn,WindDirection,WindDirectionDegrees,WindSpeedMPH,WindSpeedGustMPH,Humidity,HourlyPrecipIn,Conditions,Clouds,dailyrainin,SolarRadiationWatts/m^2,SoftwareType,DateUTC
2013-07-25 00:07:00,81.1,74.0,29.97,WSW,246,0.0,-999.0,80,-99.99,,,0.00,0,weatherlink.com 1.10,2013-07-25 04:07:00,
2013-07-25 00:22:00,80.8,74.0,29.97,WSW,246,0.0,-999.0,80,-99.99,,,0.00,0,weatherlink.com 1.10,2013-07-25 04:22:00,
2013-07-25 00:37:00,80.6,74.0,29.97,WSW,246,0.0,-999.0,81,-99.99,,,0.00,0,weatherlink.com 1.10,2013-07-25 04:37:00,
2013-07-25 00:52:00,80.2,74.0,29.96,WSW,246,2.0,-999.0,82,-99.99,,,0.00,0,weatherlink.com 1.10,2013-07-25 04:52:00,
2013-07-25 01:07:00,80.0,74.0,29.96,WSW,246,0.0,-999.0,82,-99.99,,,0.00,0,weatherlink.com 1.10,2013-07-25 05:07:00,
2013-07-25 01:22:00,79.8,74.0,29.96,WSW,246,0.0,-999.0,83,-99.99,,,0.00,0,weatherlink.com 1.10,2013-07-25 05:22:00,
2013-07-25 01:37:00,79.5,74.0,29.96,WSW,246,0.0,-999.0,83,-99.99,,,0.00,0,weatherlink.com 1.10,2013-07-25 05:37:00,
2013-07-25 01:52:00,79.1,74.0,29.95,WSW,246,0.0,-999.0,84,-99.99,,,0.00,0,weatherlink.com 1.10,2013-07-25 05:52:00,
2013-07-25 02:07:00,78.7,74.0,29.95,WSW,246,0.0,-999.0,84,-99.99,,,0.00,0,weatherlink.com 1.10,2013-07-25 06:07:00,
2013-07-25 02:22:00,78.4,74.0,29.94,WSW,246,0.0,-999.0,85,-99.99,,,0.00,0,weatherlink.com 1.10,2013-07-25 06:22:00,
2013-07-25 02:37:00,78.1,73.0,29.93,WSW,246,0.0,-999.0,85,-99.99,,,0.00,0,weatherlink.com 1.10,2013-07-25 06:37:00,
2013-07-25 02:52:00,77.7,73.0,29.94,WSW,246,0.0,-999.0,86,-99.99,,,0.00,0,weatherlink.com 1.10,2013-07-25 06:52:00,
2013-07-25 03:07:00,77.3,73.0,29.94,WSW,246,0.0,-999.0,86,-99.99,,,0.00,0,weatherlink.com 1.10,2013-07-25 07:07:00,
2013-07-25 03:22:00,76.9,73.0,29.93,WSW,246,0.0,-999.0,87,-99.99,,,0.00,0,weatherlink.com 1.10,2013-07-25 07:22:00,
2013-07-25 03:37:00,76.5,73.0,29.93,WSW,246,0.0,-999.0,88,-99.99,,,0.00,0,weatherlink.com 1.10,2013-07-25 07:37:00,
2013-07-25 03:52:00,76.2,73.0,29.93,WSW,246,0.0,-999.0,88,-99.99,,,0.00,0,weatherlink.com 1.10,2013-07-25 07:52:00,
2013-07-25 04:07:00,75.8,72.0,29.93,WSW,246,0.0,-999.0,89,-99.99,,,0.00,0,weatherlink.com 1.10,2013-07-25 08:07:00,
2013-07-25 04:22:00,75.4,72.0,29.93,WSW,246,0.0,-999.0,89,-99.99,,,0.00,0,weatherlink.com 1.10,2013-07-25 08:22:00,
2013-07-25 04:37:00,74.9,72.0,29.92,WSW,246,0.0,-999.0,89,-99.99,,,0.00,0,weatherlink.com 1.10,2013-07-25 08:37:00,
2013-07-25 04:52:00,74.6,72.0,29.92,WSW,246,0.0,-999.0,90,-99.99,,,0.00,0,weatherlink.com 1.10,2013-07-25 08:52:00,
2013-07-25 05:07:00,74.2,71.0,29.93,WSW,246,0.0,-999.0,90,-99.99,,,0.00,0,weatherlink.com 1.10,2013-07-25 09:07:00,
2013-07-25 05:22:00,74.0,71.0,29.93,WSW,246,0.0,-999.0,90,-99.99,,,0.00,0,weatherlink.com 1.10,2013-07-25 09:22:00,
2013-07-25 05:37:00,74.0,71.0,29.93,WSW,246,0.0,-999.0,91,-99.99,,,0.00,0,weatherlink.com 1.10,2013-07-25 09:37:00,
2013-07-25 05:52:00,73.9,71.0,29.93,WSW,246,0.0,-999.0,91,-99.99,,,0.00,0,weatherlink.com 1.10,2013-07-25 09:52:00,
2013-07-25 06:07:00,73.8,71.0,29.93,WSW,246,0.0,-999.0,92,-99.99,,,0.00,0,weatherlink.com 1.10,2013-07-25 10:07:00,
2013-07-25 06:22:00,73.7,71.0,29.95,WSW,246,0.0,-999.0,92,-99.99,,,0.00,0,weatherlink.com 1.10,2013-07-25 10:22:00,
2013-07-25 06:37:00,73.7,71.0,29.95,WSW,246,0.0,-999.0,92,-99.99,,,0.00,0,weatherlink.com 1.10,2013-07-25 10:37:00,
2013-07-25 06:52:00,73.6,72.0,29.95,WSW,246,0.0,-999.0,93,-99.99,,,0.00,9,weatherlink.com 1.10,2013-07-25 10:52:00,
2013-07-25 07:07:00,73.5,71.0,29.96,WSW,246,0.0,-999.0,93,-99.99,,,0.00,28,weatherlink.com 1.10,2013-07-25 11:07:00,
2013-07-25 07:22:00,73.6,72.0,29.96,WSW,246,0.0,-999.0,93,-99.99,,,0.00,42,weatherlink.com 1.10,2013-07-25 11:22:00,
2013-07-25 07:37:00,74.2,72.0,29.97,WSW,246,0.0,-999.0,94,-99.99,,,0.00,102,weatherlink.com 1.10,2013-07-25 11:37:00,
2013-07-25 07:53:00,75.7,74.0,29.97,WSW,246,0.0,-999.0,94,-99.99,,,0.00,148,weatherlink.com 1.10,2013-07-25 11:53:00,
2013-07-25 08:08:00,77.0,75.0,29.97,WSW,246,0.0,-999.0,94,-99.99,,,0.00,200,weatherlink.com 1.10,2013-07-25 12:08:00,
2013-07-25 08:23:00,78.4,76.0,29.98,WSW,237,0.0,-999.0,93,-99.99,,,0.00,258,weatherlink.com 1.10,2013-07-25 12:23:00,
2013-07-25 08:38:00,80.1,76.0,29.98,West,277,2.0,-999.0,88,-99.99,,,0.00,262,weatherlink.com 1.10,2013-07-25 12:38:00,
2013-07-25 08:53:00,81.6,76.0,29.98,WSW,252,0.0,-999.0,83,-99.99,,,0.00,360,weatherlink.com 1.10,2013-07-25 12:53:00,
2013-07-25 09:08:00,82.7,76.0,29.98,West,269,3.0,-999.0,79,-99.99,,,0.00,420,weatherlink.com 1.10,2013-07-25 13:08:00,
2013-07-25 09:23:00,83.2,75.0,29.98,WSW,257,0.0,-999.0,77,-99.99,,,0.00,127,weatherlink.com 1.10,2013-07-25 13:23:00,
2013-07-25 09:38:00,83.7,75.0,29.98,West,276,1.0,-999.0,76,-99.99,,,0.00,536,weatherlink.com 1.10,2013-07-25 13:38:00,
2013-07-25 09:53:00,83.8,75.0,29.99,WSW,242,2.0,-999.0,74,-99.99,,,0.00,183,weatherlink.com 1.10,2013-07-25 13:53:00,
2013-07-25 10:08:00,85.1,75.0,29.99,SW,232,0.0,-999.0,72,-99.99,,,0.00,677,weatherlink.com 1.10,2013-07-25 14:08:00,
2013-07-25 10:23:00,84.2,74.0,30.00,West,262,0.0,-999.0,71,-99.99,,,0.00,663,weatherlink.com 1.10,2013-07-25 14:23:00,
2013-07-25 10:39:00,85.7,74.0,30.00,WSW,246,4.0,-999.0,67,-99.99,,,0.00,605,weatherlink.com 1.10,2013-07-25 14:39:00,
2013-07-25 10:53:00,86.6,74.0,30.01,SW,236,0.0,-999.0,66,-99.99,,,0.00,795,weatherlink.com 1.10,2013-07-25 14:53:00,
2013-07-25 11:08:00,86.9,74.0,30.01,WSW,244,0.0,-999.0,66,-99.99,,,0.00,728,weatherlink.com 1.10,2013-07-25 15:08:00,
2013-07-25 11:23:00,87.4,74.0,30.01,West,264,5.0,-999.0,64,-99.99,,,0.00,898,weatherlink.com 1.10,2013-07-25 15:23:00,
2013-07-25 11:38:00,87.5,73.0,30.02,WNW,286,1.0,-999.0,63,-99.99,,,0.00,963,weatherlink.com 1.10,2013-07-25 15:38:00,
2013-07-25 11:53:00,89.1,75.0,30.02,WSW,257,0.0,-999.0,63,-99.99,,,0.00,1004,weatherlink.com 1.10,2013-07-25 15:53:00,
2013-07-25 12:08:00,88.5,75.0,30.02,SW,227,0.0,-999.0,64,-99.99,,,0.00,348,weatherlink.com 1.10,2013-07-25 16:08:00,
2013-07-25 12:23:00,89.3,76.0,30.02,West,279,0.0,-999.0,65,-99.99,,,0.00,981,weatherlink.com 1.10,2013-07-25 16:23:00,
2013-07-25 12:39:00,89.1,73.0,30.02,West,261,3.0,-999.0,60,-99.99,,,0.00,320,weatherlink.com 1.10,2013-07-25 16:39:00,
2013-07-25 12:54:00,90.2,74.0,30.01,WNW,288,0.0,-999.0,60,-99.99,,,0.00,990,weatherlink.com 1.10,2013-07-25 16:54:00,
2013-07-25 13:09:00,90.8,73.0,30.00,West,263,0.0,-999.0,56,-99.99,,,0.00,1007,weatherlink.com 1.10,2013-07-25 17:09:00,
2013-07-25 13:24:00,90.3,73.0,30.00,WSW,257,4.0,-999.0,57,-99.99,,,0.00,299,weatherlink.com 1.10,2013-07-25 17:24:00,
2013-07-25 13:39:00,90.2,74.0,29.99,WSW,254,5.0,-999.0,59,-99.99,,,0.00,287,weatherlink.com 1.10,2013-07-25 17:39:00,
2013-07-25 13:54:00,90.7,75.0,29.99,West,271,0.0,-999.0,61,-99.99,,,0.00,898,weatherlink.com 1.10,2013-07-25 17:54:00,
2013-07-25 14:09:00,91.5,75.0,29.99,West,273,0.0,-999.0,58,-99.99,,,0.00,348,weatherlink.com 1.10,2013-07-25 18:09:00,
2013-07-25 14:24:00,91.0,74.0,29.98,WSW,248,4.0,-999.0,58,-99.99,,,0.00,805,weatherlink.com 1.10,2013-07-25 18:24:00,
2013-07-25 14:39:00,91.2,74.0,29.98,WSW,252,1.0,-999.0,57,-99.99,,,0.00,355,weatherlink.com 1.10,2013-07-25 18:39:00,
2013-07-25 14:54:00,92.0,75.0,29.98,WSW,240,4.0,-999.0,57,-99.99,,,0.00,904,weatherlink.com 1.10,2013-07-25 18:54:00,
2013-07-25 15:09:00,91.9,73.0,29.98,WNW,302,0.0,-999.0,55,-99.99,,,0.00,279,weatherlink.com 1.10,2013-07-25 19:09:00,
2013-07-25 15:24:00,91.6,75.0,29.98,WNW,286,2.0,-999.0,59,-99.99,,,0.00,452,weatherlink.com 1.10,2013-07-25 19:24:00,
2013-07-25 15:39:00,91.6,73.0,29.98,West,260,3.0,-999.0,55,-99.99,,,0.00,657,weatherlink.com 1.10,2013-07-25 19:39:00,
2013-07-25 15:54:00,91.4,75.0,29.97,SW,233,0.0,-999.0,59,-99.99,,,0.00,336,weatherlink.com 1.10,2013-07-25 19:54:00,
2013-07-25 16:09:00,92.2,74.0,29.97,WSW,245,0.0,-999.0,56,-99.99,,,0.00,708,weatherlink.com 1.10,2013-07-25 20:09:00,
2013-07-25 16:24:00,92.4,74.0,29.96,WSW,254,1.0,-999.0,56,-99.99,,,0.00,671,weatherlink.com 1.10,2013-07-25 20:24:00,
2013-07-25 16:39:00,92.5,75.0,29.97,WNW,296,1.0,-999.0,56,-99.99,,,0.00,248,weatherlink.com 1.10,2013-07-25 20:39:00,
2013-07-25 16:54:00,92.2,74.0,29.97,West,261,3.0,-999.0,55,-99.99,,,0.00,601,weatherlink.com 1.10,2013-07-25 20:54:00,
2013-07-25 17:09:00,92.6,74.0,29.97,WNW,299,0.0,-999.0,55,-99.99,,,0.00,454,weatherlink.com 1.10,2013-07-25 21:09:00,
2013-07-25 17:24:00,93.0,74.0,29.97,WSW,249,11.0,-999.0,55,-99.99,,,0.00,192,weatherlink.com 1.10,2013-07-25 21:24:00,
2013-07-25 17:39:00,92.1,74.0,29.97,WSW,252,3.0,-999.0,56,-99.99,,,0.00,176,weatherlink.com 1.10,2013-07-25 21:39:00,
2013-07-25 17:54:00,91.5,74.0,29.97,SW,226,8.0,-999.0,57,-99.99,,,0.00,120,weatherlink.com 1.10,2013-07-25 21:54:00,
2013-07-25 18:09:00,90.9,74.0,29.97,West,273,4.0,-999.0,58,-99.99,,,0.00,206,weatherlink.com 1.10,2013-07-25 22:09:00,
2013-07-25 18:24:00,90.7,75.0,29.97,WSW,247,0.0,-999.0,61,-99.99,,,0.00,200,weatherlink.com 1.10,2013-07-25 22:24:00,
2013-07-25 18:39:00,90.3,75.0,29.98,WSW,246,1.0,-999.0,60,-99.99,,,0.00,118,weatherlink.com 1.10,2013-07-25 22:39:00,
2013-07-25 18:54:00,89.5,75.0,29.98,WSW,249,2.0,-999.0,62,-99.99,,,0.00,132,weatherlink.com 1.10,2013-07-25 22:54:00,
2013-07-25 19:09:00,88.9,76.0,29.98,WSW,254,5.0,-999.0,65,-99.99,,,0.00,54,weatherlink.com 1.10,2013-07-25 23:09:00,
2013-07-25 19:24:00,88.6,76.0,29.98,West,262,0.0,-999.0,66,-99.99,,,0.00,47,weatherlink.com 1.10,2013-07-25 23:24:00,
2013-07-25 19:39:00,88.1,76.0,29.98,WSW,254,0.0,-999.0,67,-99.99,,,0.00,35,weatherlink.com 1.10,2013-07-25 23:39:00,
2013-07-25 19:54:00,87.6,76.0,29.98,WNW,295,0.0,-999.0,69,-99.99,,,0.00,19,weatherlink.com 1.10,2013-07-25 23:54:00,
2013-07-25 20:09:00,87.0,77.0,29.98,West,263,2.0,-999.0,71,-99.99,,,0.00,0,weatherlink.com 1.10,2013-07-26 00:09:00,
2013-07-25 20:24:00,86.6,77.0,29.98,West,270,3.0,-999.0,72,-99.99,,,0.00,0,weatherlink.com 1.10,2013-07-26 00:24:00,
2013-07-25 20:39:00,86.2,77.0,29.99,West,281,0.0,-999.0,74,-99.99,,,0.00,0,weatherlink.com 1.10,2013-07-26 00:39:00,
2013-07-25 20:54:00,85.6,77.0,29.99,WNW,283,0.0,-999.0,75,-99.99,,,0.00,0,weatherlink.com 1.10,2013-07-26 00:54:00,
2013-07-25 21:09:00,85.3,77.0,29.99,WSW,257,0.0,-999.0,76,-99.99,,,0.00,0,weatherlink.com 1.10,2013-07-26 01:09:00,
2013-07-25 21:24:00,85.1,77.0,29.99,WSW,244,0.0,-999.0,77,-99.99,,,0.00,0,weatherlink.com 1.10,2013-07-26 01:24:00,
2013-07-25 21:39:00,84.9,77.0,30.00,West,264,4.0,-999.0,77,-99.99,,,0.00,0,weatherlink.com 1.10,2013-07-26 01:39:00,
2013-07-25 21:54:00,84.7,77.0,30.00,WSW,254,2.0,-999.0,78,-99.99,,,0.00,0,weatherlink.com 1.10,2013-07-26 01:54:00,
2013-07-25 22:09:00,84.6,77.0,30.01,WSW,242,0.0,-999.0,78,-99.99,,,0.00,0,weatherlink.com 1.10,2013-07-26 02:09:00,
2013-07-25 22:24:00,84.3,77.0,30.01,WSW,244,0.0,-999.0,78,-99.99,,,0.00,0,weatherlink.com 1.10,2013-07-26 02:24:00,
2013-07-25 22:39:00,84.1,77.0,30.02,SW,230,3.0,-999.0,79,-99.99,,,0.00,0,weatherlink.com 1.10,2013-07-26 02:39:00,
2013-07-25 22:54:00,83.8,77.0,30.02,West,280,0.0,-999.0,80,-99.99,,,0.00,0,weatherlink.com 1.10,2013-07-26 02:54:00,
2013-07-25 23:09:00,83.4,77.0,30.02,WNW,293,3.0,-999.0,80,-99.99,,,0.00,0,weatherlink.com 1.10,2013-07-26 03:09:00,
2013-07-25 23:24:00,83.1,77.0,30.02,WSW,255,0.0,-999.0,81,-99.99,,,0.00,0,weatherlink.com 1.10,2013-07-26 03:24:00,
2013-07-25 23:39:00,82.8,76.0,30.02,SW,229,0.0,-999.0,81,-99.99,,,0.00,0,weatherlink.com 1.10,2013-07-26 03:39:00,
2013-07-25 23:54:00,82.5,77.0,30.02,WSW,255,0.0,-999.0,82,-99.99,,,0.00,0,weatherlink.com 1.10,2013-07-26 03:54:00,